FENGYUN 1C DEB, 37921

Orbit data source: Space-Track

FENGYUN 1C DEB, 37921 is space debris in SSO originally from a launch on Mon, 10 May 1999 UTC launched from the Taiyaun Space Center, China (TSC). Fengyun 1C debris stems from the Chinese weather satellite Fengyun-1C, which was intentionally destroyed by a Chinese anti-satellite missile in 2007. This event dramatically increased the amount of space debris, with thousands of trackable fragments posing hazards to satellites and human spaceflight. The Fengyun 1C debris cloud has become a focal point in discussions about space sustainability and the need for international regulations to prevent the creation of new debris.

Loading next visibility...
Identifier
37921, 1999-025ENW
Orbit
SSO
Country
Flag of CNCN / PRC
Related business
Manufacturer
Unknown
Mission
Spacecraft
Bus & Motor
Unknown
Mass
Unknown
Launch date (UTC)
1999-05-10 (27 years ago)
Launch vehicle
Unknown
Launch site
Taiyaun Space Center, China (TSC)
Object type
Payload
Rocket body
Debris
Shape & HBR
Unknown shape, 0.1 m
Radar Cross Section
Small (<0.1 m²)

Expand to show TLE details & history
Last TLE update: 14 hours ago

TLE from 14 hours ago
0 FENGYUN 1C DEB
1 37921U 99025ENW 26120.34435831  .00000321  00000-0  26118-3 0  9996
2 37921  99.0028 163.2808 0084623  79.1495 281.9177 13.95239756650802
Epoch: 2026-04-30T08:15Z
TLE epoch observation values (Epoch: 2026-04-30T08:15:52.557Z)
Latitude
-0°
Longitude
-178.9805°
Altitude
900.959 km
Speed
7.408 km/s
True Right ascension
10h 53m 07s
True Declination
0° 00' 00"
Sunlit
Object was in full shadow at epoch
Visualization orbit readout
Latitude
Unknown
Longitude
Unknown
Altitude
Unknown
Speed
Unknown
Apparent Right ascension
Unknown
Apparent Declination
Unknown
Sunlit
N/A
Visualization observer readout
Local Sidereal Time
05:46:17
Azimuth
Unknown
Elevation
Unknown
Doppler factor
Unknown
Orbital elements
Apogee altitude
969.185 km
Perigee altitude
845.878 km
Semi-major axis
7,285.668 km
Eccentricity
0.00846
Inclination
99.0028°
RAAN
163.2808°
Arg. of periapsis
79.1495°
True anomaly
280.96686°
Mean anomaly
281.9177°
Eccentric anomaly
281.44248°
Mean motion
3.49011 °/min
Orbital period
103.15 mins
BSTAR
0.00026118
Loading maneuver chart data...
Computing Atmospheric mass density...

Documentation

Showing up to 5 results
|